TimePDT,TemperatureF,Dew PointF,Humidity,Sea Level PressureIn,VisibilityMPH,Wind Direction,Wind SpeedMPH,Gust SpeedMPH,PrecipitationIn,Events,Conditions,WindDirDegrees,DateUTC
12:55 AM,62.1,57.9,86,30.06,4.0,West,3.5,-,N/A,,Overcast,260,2011-10-18 07:55:00
1:55 AM,62.1,57.9,86,30.06,3.0,Calm,Calm,-,N/A,,Overcast,0,2011-10-18 08:55:00
2:41 AM,62.6,57.2,82,30.02,2.5,Calm,Calm,-,N/A,,Overcast,0,2011-10-18 09:41:00
3:22 AM,62.6,57.2,82,30.01,1.8,Calm,Calm,-,N/A,,Overcast,0,2011-10-18 10:22:00
3:31 AM,62.6,59.0,88,30.01,2.0,East,4.6,-,N/A,,Overcast,80,2011-10-18 10:31:00
4:05 AM,62.6,57.2,82,30.00,1.5,Calm,Calm,-,N/A,,Overcast,0,2011-10-18 11:05:00
4:55 AM,61.0,57.9,90,30.03,1.2,Calm,Calm,-,N/A,,Overcast,0,2011-10-18 11:55:00
5:34 AM,60.8,57.2,88,30.02,0.5,Calm,Calm,-,N/A,Fog,Fog,0,2011-10-18 12:34:00
5:55 AM,61.0,57.9,90,30.04,0.8,West,4.6,-,N/A,,Mist,260,2011-10-18 12:55:00
6:19 AM,60.8,57.2,88,30.02,1.2,WSW,4.6,-,N/A,,Overcast,250,2011-10-18 13:19:00
6:26 AM,60.8,57.2,88,30.02,2.0,Calm,Calm,-,N/A,,Overcast,0,2011-10-18 13:26:00
6:46 AM,60.8,57.2,88,30.03,3.0,Calm,Calm,-,N/A,,Overcast,0,2011-10-18 13:46:00
6:55 AM,60.1,57.0,90,30.05,4.0,NW,3.5,-,N/A,,Overcast,320,2011-10-18 13:55:00
7:55 AM,61.0,57.0,87,30.07,2.5,Calm,Calm,-,N/A,,Overcast,0,2011-10-18 14:55:00
8:45 AM,60.8,57.2,88,30.06,5.0,Calm,Calm,-,N/A,,Overcast,0,2011-10-18 15:45:00
9:55 AM,62.1,57.0,84,30.09,6.0,Calm,Calm,-,N/A,,Haze,0,2011-10-18 16:55:00
10:55 AM,64.0,57.0,78,30.07,7.0,Calm,Calm,-,N/A,,Overcast,0,2011-10-18 17:55:00
11:02 AM,64.4,57.2,77,30.04,7.0,Calm,Calm,-,N/A,,Overcast,0,2011-10-18 18:02:00
12:25 PM,68.0,57.2,68,30.03,9.0,SW,6.9,-,N/A,,Overcast,230,2011-10-18 19:25:00
12:55 PM,66.0,57.9,75,30.04,10.0,SW,5.8,-,N/A,,Mostly Cloudy,220,2011-10-18 19:55:00
1:05 PM,66.2,57.2,73,30.01,10.0,WSW,5.8,-,N/A,,Mostly Cloudy,240,2011-10-18 20:05:00
1:55 PM,66.0,57.9,75,30.02,10.0,Variable,5.8,-,N/A,,Overcast,0,2011-10-18 20:55:00
2:55 PM,64.9,57.0,75,30.01,9.0,SW,5.8,-,N/A,,Overcast,230,2011-10-18 21:55:00
3:55 PM,64.0,57.0,78,30.00,10.0,SW,5.8,-,N/A,,Overcast,220,2011-10-18 22:55:00
4:55 PM,63.0,57.0,81,29.99,6.0,West,8.1,-,N/A,,Haze,260,2011-10-18 23:55:00
5:07 PM,62.6,57.2,82,29.96,6.0,West,8.1,-,N/A,,Haze,270,2011-10-19 00:07:00
6:55 PM,62.1,57.9,86,29.98,7.0,Calm,Calm,-,N/A,,Overcast,0,2011-10-19 01:55:00
7:15 PM,62.6,57.2,82,29.96,6.0,Calm,Calm,-,N/A,,Overcast,0,2011-10-19 02:15:00
7:55 PM,62.1,57.9,86,29.98,5.0,SW,3.5,-,N/A,,Overcast,230,2011-10-19 02:55:00
8:55 PM,62.1,57.0,84,29.99,5.0,NNW,4.6,-,N/A,,Haze,340,2011-10-19 03:55:00
9:55 PM,62.1,57.0,84,29.99,5.0,Calm,Calm,-,N/A,,Haze,0,2011-10-19 04:55:00
10:55 PM,62.1,57.9,86,29.99,4.0,WNW,3.5,-,N/A,,Overcast,300,2011-10-19 05:55:00
11:21 PM,62.6,57.2,82,29.95,3.0,Calm,Calm,-,N/A,,Overcast,0,2011-10-19 06:21:00
11:55 PM,62.1,57.0,84,29.97,3.0,Calm,Calm,-,N/A,,Haze,0,2011-10-19 06:55:00